Simultaneous Nadir Overpasses (SNOs) Predictions

Prediction of SNOs between GOES-16 and TERRA Satellite Orbit:

Table of predicted SNOs for the next 14.0 days since TLE Epoch: 11/21/2020
Index Date Time (GOES-16) GOES-16 Lat,Lon TERRA Lat,Lon Distance(km) Time Diff (sec)
1 11/21/2020 03:35:39 0.03, -75.15 -0.18, -76.02 99.45 80
2 11/23/2020 03:20:47 0.02, -75.15 0.44, -73.06 237.32 80
3 11/23/2020 15:42:03 -0.02, -75.17 0.62, -78.22 346.63 80
4 11/25/2020 15:29:51 -0.02, -75.19 -0.01, -75.27 8.92 80
5 11/27/2020 15:20:19 -0.02, -75.20 -0.64, -72.31 329.36 80
6 11/28/2020 03:41:42 0.02, -75.19 -0.47, -77.50 262.39 80
7 11/30/2020 03:26:50 0.01, -75.21 0.17, -74.54 76.34 80
8 12/02/2020 03:14:39 0.01, -75.24 0.81, -71.59 415.34 80
9 12/02/2020 15:35:53 -0.00, -75.26 0.31, -76.74 168.33 80
10 12/04/2020 15:26:21 0.01, -75.29 -0.33, -73.78 171.09 80
